Lexington Weather

Lexington, Massachusetts, USA

57°F
12/4/2020 1:30pm 
  • Lexington Conditions: Partly cloudy
  • Temperature: 57.2°F / 14.0°CWarmer 3.1°F than last hour.
  • Dew Point: 34.3°FDecreased 0.6°Fsince last hour.
  • Relative Humidity: 42%Decreased 6.0% since last hour.
  • Wind: Wind from SW SW 8 mph, 10-min avg: 5 mph, gust: 14 mph
  • Barometer: 29.89 inFalling 0.02  inHg/hr Falling Slowly
  • Visibility: 10 miles
  • Rain Today: 0.00 in
  •   
Southeast Middlesex County - Winter Storm Watch
 - SEE ALL NEARBY ALERTS -

Regional Weather Roundup
for Boston / Norton, MA

        
000
ASUS41 KBOX 272005
RWRBOX

REGIONAL WEATHER ROUNDUP
NATIONAL WEATHER SERVICE BOSTON/NORTON MA
300 PM EST FRI NOV 27 2020

NOTE:  "FAIR" INDICATES FEW OR NO CLOUDS BELOW 12,000 FEET WITH NO 
SIGNIFICANT WEATHER AND/OR OBSTRUCTIONS TO VISIBILITY.

MAZALL-272100-
EASTERN MASSACHUSETTS
  
CITY           SKY/WX    TMP DP  RH WIND       PRES   REMARKS
BOSTON         CLOUDY    54  46  74 NW7       29.99R                  
BEVERLY        CLOUDY    54  47  77 W6        29.97R                  
LAWRENCE       CLOUDY    51  47  86 SW6       29.99R                  
BEDFORD        CLOUDY    53  49  86 CALM      29.97S                  
BLUE HILL        N/A     52  46  80 W7        29.97S                  
NORWOOD        CLOUDY    56  47  71 W6        29.98S                  
MARSHFIELD     CLOUDY    57  52  82 CALM      29.98R                  
PLYMOUTH       CLOUDY    55  49  80 W3        29.97S                  
TAUNTON        CLOUDY    57  49  74 CALM      29.98R                  
NEW BEDFORD    CLOUDY    57  50  77 CALM      29.98R                  
$$

MAZALL-272100-
CAPE COD AND THE ISLANDS
  
CITY           SKY/WX    TMP DP  RH WIND       PRES   REMARKS
FALMOUTH       CLOUDY    55  50  82 W9        30.00S                  
HYANNIS        CLOUDY    57  51  80 E3        29.97R                  
CHATHAM        CLOUDY    54  49  83 S3        29.99R                  
NANTUCKET      CLOUDY    57  50  77 SW5       29.99R                  
MARTHAS VNYRD  CLOUDY    58  49  72 SW5       29.98R                  
$$
 
MAZALL-272100-
CENTRAL AND WESTERN MASSACHUSETTS
  
CITY           SKY/WX    TMP DP  RH WIND       PRES   REMARKS
WORCESTER      CLOUDY    50  42  74 W7        29.98S                  
FITCHBURG      CLOUDY    53  41  63 NW10      29.98S                  
ORANGE         CLOUDY    52  47  83 CALM      29.99F                  
SPRINGFIELD    PTSUNNY   54  44  70 CALM      29.98S                  
WESTFIELD      CLOUDY    54  43  66 N6        29.99S                  
NORTH ADAMS    CLOUDY    50  37  61 W5        29.99F                  
PITTSFIELD     CLOUDY    48  37  65 W5        29.97F                  
$$
 
RIZALL-272100-
RHODE ISLAND
  
CITY           SKY/WX    TMP DP  RH WIND       PRES   REMARKS
PROVIDENCE     PTSUNNY   58  48  69 N6        29.98S                  
NEWPORT        CLOUDY    56  48  74 CALM      29.98S                  
BLOCK ISLAND   CLOUDY    56  48  74 W6        29.99F                  
SMITHFIELD     CLOUDY    53  50  89 W5        29.99S                  
WESTERLY       CLOUDY    57  48  72 SW3       29.98F                  
$$
 
CTZALL-272100-
CONNECTICUT
  
CITY           SKY/WX    TMP DP  RH WIND       PRES   REMARKS
BRADLEY INTL   CLOUDY    55  46  71 CALM      29.99S                  
HARTFORD       CLOUDY    56  47  71 CALM      29.98F                  
BRIDGEPORT     CLOUDY    56  49  77 S5        29.98F                  
DANBURY        CLOUDY    55  45  68 NW5       30.00S                  
GROTON         CLOUDY    56  50  80 SW3       29.98S                  
NEW HAVEN      CLOUDY    57  50  77 SW3       29.98F                  
CHESTER        CLOUDY    55  48  76 MISG      29.98F                  
MERIDEN        CLOUDY    57  46  66 N3        29.98F                  
WILLIMANTIC    CLOUDY    55  47  74 CALM      29.98F                  
OXFORD         CLOUDY    54  47  77 CALM      29.99F                  
$$

MEZ002-015-021-024-NHZ003-005-008-011-012-014-VTZ005-008-272100-
NORTHERN NEW ENGLAND
  
CITY           SKY/WX    TMP DP  RH WIND       PRES   REMARKS
PORTLAND ME    CLOUDY    49  46  90 CALM      29.96R                  
BANGOR ME      CLOUDY    48  44  86 CALM      29.95S                  
CONCORD NH     CLOUDY    52  41  66 W7        29.97S                  
MANCHESTER NH  CLOUDY    51  44  77 W3        29.96R                  
NASHUA NH      CLOUDY    50  50 100 CALM      29.98S                  
PORTSMOUTH NH  CLOUDY    52  51  99 CALM      29.95S                  
JAFFREY NH     CLOUDY    51  38  60 VRB3      29.97F                  
KEENE NH       CLOUDY    52  40  63 NW3       29.98F                  
BURLINGTON VT  CLOUDY    46  40  79 NE5       29.99F                  
MT. WASHINGTON FOG       30  30 100 W16         N/A  VSB 1/8 WCI  19  
$$

NYZ052-076-272100-
EASTERN NEW YORK
  
CITY           SKY/WX    TMP DP  RH WIND       PRES   REMARKS
ALBANY         CLOUDY    47  39  74 NW7       30.01F                  
NEW YORK CITY  PTSUNNY   61  42  49 W9        29.98F                  
$$
 
ANZALL-272100-
MARINE OBSERVATIONS
  
STATION/POSITION TIME  TEMP    WIND        PRES    VSBY  WAVE
                       AIR SEA DIR/SP/G                  HT/PER
                 (UTC) (F)     (DEG/KT/KT) (MB)    (MI)  (FT/S)
BOSTON BUOY      1940   51 50  250/  6/  6 1015.5R
BUZZARDS BAY     1900          250/  5/  6 1016.1F
NANTUCKET SOUND  1940      51  220/  4/  4   N/A
MASS BAY-STELLWA NOT AVBL
ISLE OF SHOALS   1900   51     310/  7/  7 1014.1F
S OF BLOCK IS    1926      57                N/A           5/ 8
$$

......................KEY.........................
  SKY/WX - SKY CONDITION/PRESENT WEATHER
  TMP    - TEMPERATURE IN FAHRENHEIT
  DWPT   - DEWPOINT IN FAHRENHEIT
  RH     - RELATIVE HUMIDITY IN PERCENT
  WIND   - DIRECTION AND SPEED IN MPH
  PRES   - MEAN SEA LEVEL PRESSURE IN INCHES OF HG
  WCI    - WIND CHILL INDEX
  VSB    - VISIBILITY IN MILES
  HX     - HEAT INDEX
  TC     - TEMPERATURE IN CELSIUS
  VRB    - VARIABLE WIND DIRECTION
  N/A    - NOT AVAILABLE
  
      

Other recent Regional Weather Roundups

Fri Dec 4, 1:04pm

Fri Dec 4, 12:04pm

Fri Dec 4, 11:04am

Fri Dec 4, 10:05am

Fri Dec 4, 9:04am

Fri Dec 4, 8:04am

Fri Dec 4, 7:04am

Fri Dec 4, 6:04am

Fri Dec 4, 5:04am

Fri Dec 4, 4:04am

Fri Dec 4, 3:04am

Fri Dec 4, 2:04am

Fri Dec 4, 1:04am

Fri Dec 4, 12:04am

Thu Dec 3, 11:04pm

Thu Dec 3, 10:04pm

Thu Dec 3, 9:04pm

Thu Dec 3, 8:04pm

Thu Dec 3, 7:04pm

Thu Dec 3, 6:04pm

Thu Dec 3, 5:04pm

Thu Dec 3, 4:05pm

Thu Dec 3, 3:04pm

Thu Dec 3, 2:04pm

Thu Dec 3, 1:04pm

Thu Dec 3, 12:04pm

Thu Dec 3, 11:04am

Thu Dec 3, 10:04am

Thu Dec 3, 9:04am

Thu Dec 3, 8:04am

Thu Dec 3, 7:04am

Thu Dec 3, 6:04am

Thu Dec 3, 5:04am

Thu Dec 3, 4:04am

Thu Dec 3, 3:04am

Thu Dec 3, 2:04am

Thu Dec 3, 1:04am

Thu Dec 3, 12:04am

Wed Dec 2, 11:04pm

Wed Dec 2, 10:04pm

Wed Dec 2, 9:04pm

Wed Dec 2, 8:04pm

Wed Dec 2, 7:04pm

Wed Dec 2, 6:05pm

Wed Dec 2, 5:04pm

Wed Dec 2, 4:05pm

Wed Dec 2, 3:05pm

Wed Dec 2, 2:04pm

Wed Dec 2, 1:04pm

Wed Dec 2, 12:04pm

Wed Dec 2, 11:04am

Wed Dec 2, 10:04am

Wed Dec 2, 9:05am

Wed Dec 2, 8:04am

Wed Dec 2, 7:04am

Wed Dec 2, 6:04am

Wed Dec 2, 5:04am

Wed Dec 2, 4:04am

Wed Dec 2, 3:04am

Wed Dec 2, 2:04am

Wed Dec 2, 1:04am

Wed Dec 2, 12:04am

Tue Dec 1, 11:04pm

Tue Dec 1, 10:04pm

Tue Dec 1, 9:04pm

Tue Dec 1, 8:04pm

Tue Dec 1, 7:04pm

Tue Dec 1, 6:05pm

Tue Dec 1, 5:04pm

Tue Dec 1, 4:05pm

Tue Dec 1, 3:04pm

Tue Dec 1, 2:04pm

Tue Dec 1, 12:04pm

Tue Dec 1, 11:04am

Tue Dec 1, 10:04am

Tue Dec 1, 9:04am

Tue Dec 1, 8:04am

Tue Dec 1, 7:04am

Tue Dec 1, 6:04am

Tue Dec 1, 5:05am

Tue Dec 1, 4:04am

Tue Dec 1, 3:04am

Tue Dec 1, 2:04am

Tue Dec 1, 1:04am

Tue Dec 1, 12:04am

Mon Nov 30, 11:04pm

Mon Nov 30, 10:04pm

Mon Nov 30, 9:04pm

Mon Nov 30, 8:04pm

Mon Nov 30, 7:05pm

Mon Nov 30, 6:04pm

Mon Nov 30, 5:05pm

Mon Nov 30, 4:04pm

Mon Nov 30, 3:05pm

Mon Nov 30, 2:05pm

Mon Nov 30, 1:04pm

Mon Nov 30, 12:05pm

Mon Nov 30, 11:04am

Mon Nov 30, 10:04am

Mon Nov 30, 9:04am

Mon Nov 30, 8:04am

Mon Nov 30, 7:05am

Mon Nov 30, 6:04am

Mon Nov 30, 5:05am

Mon Nov 30, 4:04am

Mon Nov 30, 3:04am

Mon Nov 30, 2:04am

Mon Nov 30, 1:04am

Mon Nov 30, 12:04am

Sun Nov 29, 11:04pm

Sun Nov 29, 10:04pm

Sun Nov 29, 9:04pm

Sun Nov 29, 8:04pm

Sun Nov 29, 7:04pm

Sun Nov 29, 6:04pm

Sun Nov 29, 5:04pm

Sun Nov 29, 4:05pm

Sun Nov 29, 3:04pm

Sun Nov 29, 2:04pm

Sun Nov 29, 1:04pm

Sun Nov 29, 12:04pm

Sun Nov 29, 11:04am

Sun Nov 29, 10:04am

Sun Nov 29, 9:04am

Sun Nov 29, 8:05am

Sun Nov 29, 7:04am

Sun Nov 29, 6:04am

Sun Nov 29, 5:04am

Sun Nov 29, 4:04am

Sun Nov 29, 3:04am

Sun Nov 29, 2:05am

Sun Nov 29, 1:04am

Sun Nov 29, 12:04am

Sat Nov 28, 11:04pm

Sat Nov 28, 10:04pm

Sat Nov 28, 9:04pm

Sat Nov 28, 8:04pm

Sat Nov 28, 7:04pm

Sat Nov 28, 6:04pm

Sat Nov 28, 5:04pm

Sat Nov 28, 4:04pm

Sat Nov 28, 3:04pm

Sat Nov 28, 2:04pm

Sat Nov 28, 1:04pm

Sat Nov 28, 12:04pm

Sat Nov 28, 11:04am

Sat Nov 28, 10:04am

Sat Nov 28, 9:04am

Sat Nov 28, 8:04am

Sat Nov 28, 7:04am

Sat Nov 28, 6:04am

Sat Nov 28, 5:04am

Sat Nov 28, 4:04am

Sat Nov 28, 3:05am

Sat Nov 28, 2:04am

Sat Nov 28, 1:04am

Sat Nov 28, 12:04am

Fri Nov 27, 11:05pm

Fri Nov 27, 10:04pm

Fri Nov 27, 9:04pm

Fri Nov 27, 8:04pm

Fri Nov 27, 7:04pm

Fri Nov 27, 6:04pm

Fri Nov 27, 5:04pm

Fri Nov 27, 4:05pm

Fri Nov 27, 2:05pm

Meta data:

ID: bd8371dd-bcad-41ca-9868-4c79a1679365
Link: https://api.weather.gov/products/bd8371dd-bcad-41ca-9868-4c79a1679365